AirNav   Pilot Hours Calculator
 
 423 users online  

0FL7 WKMG-TV Heliport
Orlando, Florida, USA

GOING TO ORLANDO?


FAA INFORMATION EFFECTIVE 02 JANUARY 2020

Location

FAA Identifier: 0FL7
Lat/Long: 28-35-38.7000N 081-25-11.6000W
28-35.645000N 081-25.193333W
28.5940833,-81.4198889
(estimated)
Elevation: 98.8 ft. / 30.1 m (surveyed)
Variation: 04W (1995)
From city: 4 miles NW of ORLANDO, FL
Time zone: UTC -5 (UTC -4 during Daylight Saving Time)
Zip code: 32810

Heliport Operations

Heliport use: Private use. Permission required prior to landing
Activation date: 04/1999
Control tower: no
ARTCC: JACKSONVILLE CENTER
FSS: SAINT PETERSBURG FLIGHT SERVICE STATION
Attendance: DAWN-DUSK
Wind indicator: yes
Segmented circle: no
Lights: SS-SR

Heliport Communications

WX ASOS at ORL (5 nm SE): PHONE 407-658-6753
WX ASOS at MCO (11 nm SE): PHONE 407-855-5235
WX ASOS at SFB (15 nm NE): PHONE 407-321-9384
WX AWOS-3PT at ISM (18 nm S): 128.775 (407-847-0533)

Nearby radio navigation aids

VOR radial/distance  VOR name  Freq  Var
ORLr305/5.4ORLANDO VORTAC112.2000E

Heliport Services

Runway Information

Helipad H1

Dimensions: 35 x 35 ft. / 11 x 11 m
Surface: concrete
Runway edge lights: PERI
Latitude: 28-35.645000N
Longitude: 081-25.193333W
Elevation: 98.8 ft.
Traffic pattern: leftleft

Heliport Ownership and Management from official FAA records

Ownership: Privately-owned
Owner: GRAHAM MEDIA GROUP, ORLANDO, INC.
4466 N. JOHN YOUNG PARKWAY
ORLANDO, FL 32804
Phone 407-291-6000
Manager: FRANK TORBERT
4466 N. JOHN YOUNG PARKWAY
ORLANDO, FL 32804
Phone 407-291-6000

Additional Remarks

FOR CD CTC ORLANDO APCH AT 407-852-7553.

Instrument Procedures

There are no published instrument procedures at 0FL7.

Some nearby airports with instrument procedures:

KORL - Executive Airport (5 nm SE)
X04 - Orlando Apopka Airport (11 nm NW)
KMCO - Orlando International Airport (11 nm SE)
KSFB - Orlando Sanford International Airport (15 nm NE)
KISM - Kissimmee Gateway Airport (18 nm S)
 
Loc | Ops | Rwys | IFR | FBO | Links
Com | Nav | Svcs | Stats | Notes


 
Area around 0FL7 (WKMG-TV Heliport)
 
Road maps at: MapQuest Bing Google
 
Aerial photo
No photo
 
Sectional chart

 
Airport distance calculator
Flying to WKMG-TV Heliport? Find the distance to fly.

From to 0FL7

Sunrise and sunset
Times for 18-Jan-2020
 Local
(UTC-5)
 Zulu
(UTC)
Morning civil twilight06:5511:55
Sunrise07:2012:20
Sunset17:5222:52
Evening civil twilight18:1823:18

Current date and time
Zulu (UTC)  18-Jan-2020 08:29:03
Local (UTC-5)  18-Jan-2020 03:29:03
 
METAR
KORL 
5nm SE 
180753Z AUTO 07008KT 10SM FEW039 17/12 A3035 RMK AO2 SLP282 T01720117
KMCO 
12nm SE 
180753Z 08008KT 10SM FEW043 BKN250 18/12 A3035 RMK AO2 SLP277 T01780122
KSFB 
15nm NE 
180753Z AUTO 08006KT 10SM BKN035 OVC045 17/11 A3036 RMK AO2 SLP279 T01720111
KISM 
19nm S 
180756Z AUTO 08007KT 10SM CLR 17/13 A3036 RMK AO2 SLP280 T01720133 PNO $
TAF
KMCO 
12nm SE 
180540Z 1806/1912 07009KT P6SM FEW045 BKN250 FM181500 13012KT P6SM SCT040 FM190000 15005KT P6SM FEW050
KSFB 
15nm NE 
180540Z 1806/1906 09008KT P6SM FEW045 BKN250 FM181500 14012KT P6SM SCT040 FM190000 16006KT P6SM FEW050
KISM 
19nm S 
180540Z 1806/1906 09009KT P6SM SCT045 BKN250 FM181500 12010KT P6SM SCT040 FM190000 15006KT P6SM FEW050
NOTAMs
Click for the latest NOTAMs
NOTAMs are issued by the DoD/FAA and will open in a separate window not controlled by AirNav.

 

 
 

Would you like to see your business listed on this page?

 If your business provides an interesting product or service to pilots, flight crews, aircraft, or users of the WKMG-TV Heliport, you should consider listing it here.  To start the listing process, click on the button below
 
Add a business
 

Other Pages about WKMG-TV Heliport

Update a link
 
Copyright © AirNav, LLC. All rights reserved. Privacy Policy  Contact